This demonstration page uses our WeatherBlox Daily Observations layout. Learn more.

Left ArrowRight Arrow

39.01783, -85.05884

Hourly Observations for November 10, 2020

Temp ( °F °C ) Dew Point ( °F °C ) Humidity (%) Winds ( mph kmh ) Pressure ( in mb ) Visibility ( mi km ) Precip ( " mm )
12:52 am 00:52 Clear 63 17.2 52 11.1 68 68 S 8 13 30.06 1018 10 16.0934 0 0
1:52 am 01:52 Clear 63 17.2 52 11.1 68 68 S 8 13 30.05 1018 10 16.0934 0 0
2:52 am 02:52 Clear 62 16.7 52 11.1 70 70 S 8 13 30.05 1018 10 16.0934 0 0
3:52 am 03:52 Clear 61 16.1 52 11.1 72 72 S 10 17 30.04 1017 10 16.0934 0 0
4:52 am 04:52 Clear 60 15.6 52 11.1 75 75 S 8 13 30.04 1017 10 16.0934 0 0
5:52 am 05:52 Cloudy 60 15.6 52 11.1 75 75 S 8 13 30.04 1017 10 16.0934 0 0
6:52 am 06:52 Mostly Cloudy 60 15.6 52 11.1 75 75 S 9 15 30.04 1017 10 16.0934 0 0
7:52 am 07:52 Mostly Cloudy 61 16.1 53 11.7 75 75 S 8 13 30.04 1017 10 16.0934 0 0
8:52 am 08:52 Mostly Cloudy 65 18.3 54 12.2 68 68 S 9 15 30.04 1017 10 16.0934 0 0
9:52 am 09:52 Partly Cloudy 70 21.1 55 12.8 59 59 S 14 22 30.03 1017 10 16.0934 0 0
10:52 am 10:52 Partly Cloudy 73 22.8 56 13.3 55 55 S 18 30 30.02 1017 10 16.0934 0 0
11:52 am 11:52 Mostly Cloudy 75 23.9 57 13.9 54 54 S 15 24 29.99 1016 10 16.0934 0 0
12:52 pm 12:52 Mostly Sunny 78 25.6 58 14.4 50 50 S 16 26 29.94 1014 10 16.0934 0 0
1:52 pm 13:52 Mostly Sunny 78 25.6 58 14.4 50 50 S 22 35 29.9 1013 10 16.0934 0 0
2:52 pm 14:52 Mostly Sunny 78 25.6 57 13.9 48 48 S 17 28 29.88 1012 10 16.0934 0 0
3:52 pm 15:52 Partly Cloudy 78 25.6 57 13.9 48 48 S 20 31 29.87 1012 10 16.0934 0 0
5:52 pm 17:52 Mostly Clear 74 23.3 57 13.9 56 56 S 16 26 29.84 1011 10 16.0934 0 0
6:52 pm 18:52 Mostly Cloudy 72 22.2 57 13.9 59 59 S 12 19 29.85 1011 10 16.0934 0 0
7:52 pm 19:52 Cloudy 74 23.3 57 13.9 56 56 S 26 43 29.83 1010 10 16.0934 0 0
8:52 pm 20:52 Cloudy with Light Rain 68 20 62 16.7 81 81 S 15 24 29.86 1011 8 12.87472 0.001 0.001
9:52 pm 21:52 Cloudy with Light Rain 66 18.9 63 17.2 90 90 S 12 19 29.85 1011 7 11.26538 0.07 1.778
10:13 pm 22:13 Cloudy with Light Rain 66 18.9 63 17.2 90 90 S 14 22 29.86 1011 5 8.0467 0.03 0.762
10:22 pm 22:22 Cloudy with Light Rain 66 18.9 63 17.2 90 90 S 12 19 29.86 1011 7 11.26538 0.04 1.016
10:35 pm 22:35 Cloudy with Light Rain 66 18.9 63 17.2 90 90 S 12 19 29.85 1011 6 9.65604 0.04 1.016
10:52 pm 22:52 Cloudy with Light Rain 66 18.9 63 17.2 90 90 S 13 20 29.84 1011 6 9.65604 0.05 1.27
11:10 pm 23:10 Cloudy with Light Rain 66 18.9 64 17.8 93 93 SSW 10 17 29.84 1011 6 9.65604 0.001 0.001
11:32 pm 23:32 Cloudy with Light Rain 66 18.9 64 17.8 93 93 S 10 17 29.84 1011 8 12.87472 0.01 0.254
11:52 pm 23:52 Cloudy with Light Rain 66 18.9 64 17.8 93 93 SSW 10 17 29.83 1010 3 4.82802 0.03 0.762

Powered by AerisWeather